FW9448 Weather Reports


Display with metric or nautical units.
time (UTC)temp
F
wind
direction
speed
MPH
gust
MPH
rain 1hr
in
rain 24hr
in
rain mn
in
humidity
%
barometer
mb
20260505041543 41 223 5.0 16.0 0.00 0.19 0.00 90 1005.3
20260505040038 41 268 5.0 16.0 0.00 0.19 0.00 90 1005.3
20260505034545 41 255 6.0 15.0 0.00 0.19 0.00 91 1005.1
20260505033046 40 216 6.0 13.0 0.00 0.19 0.00 91 1005.0
20260505031540 40 287 5.0 12.0 0.00 0.19 0.00 91 1004.7
20260505030044 40 266 6.0 14.0 0.01 0.19 0.00 90 1004.6
20260505024543 41 232 6.0 17.0 0.01 0.19 0.19 91 1004.3
20260505023040 41 228 5.0 14.0 0.01 0.19 0.19 90 1004.0
20260505021540 41 207 6.0 15.0 0.01 0.19 0.19 91 1003.9
20260505020039 41 198 6.0 18.0 0.00 0.18 0.18 90 1003.6
20260505014539 41 260 6.0 15.0 0.00 0.18 0.18 89 1003.6
20260505013037 42 194 7.0 13.0 0.00 0.18 0.18 86 1003.4
20260505011555 43 253 5.0 15.0 0.00 0.18 0.18 84 1003.3
20260505010043 43 226 4.0 16.0 0.00 0.18 0.18 82 1003.1
20260505004538 43 220 6.0 17.0 0.00 0.19 0.18 82 1003.1
20260505003037 42 126 9.0 18.0 0.00 0.19 0.18 84 1002.9
20260505001538 41 169 3.0 11.0 0.00 0.19 0.18 84 1002.9
20260505000043 42 189 3.0 12.0 0.00 0.19 0.18 83 1002.7
20260504234540 41 225 4.0 13.0 0.00 0.21 0.18 83 1002.4
20260504233051 41 217 3.0 10.0 0.00 0.21 0.18 81 1002.3
20260504231538 42 235 3.0 13.0 0.00 0.21 0.18 80 1002.2
20260504230037 42 205 4.0 11.0 0.00 0.21 0.18 80 1002.0
20260504224541 42 0 3.0 10.0 0.00 0.28 0.18 79 1002.1
20260504223039 43 235 3.0 12.0 0.00 0.28 0.18 78 1001.9
20260504221538 44 226 5.0 14.0 0.00 0.28 0.18 78 1001.9
20260504220037 44 79 4.0 15.0 0.00 0.28 0.18 79 1001.7
20260504214538 44 221 5.0 16.0 0.00 0.35 0.18 80 1001.6
20260504213038 44 227 3.0 12.0 0.00 0.35 0.18 80 1001.3
20260504211538 45 204 6.0 14.0 0.00 0.35 0.18 79 1001.1
20260504210038 45 201 5.0 13.0 0.00 0.35 0.18 81 1000.9
20260504204538 45 225 4.0 15.0 0.00 0.40 0.18 80 1000.6
20260504203039 46 189 5.0 14.0 0.00 0.40 0.18 80 1000.4
20260504201538 46 147 6.0 16.0 0.00 0.40 0.18 80 1000.4
20260504200038 47 300 4.0 15.0 0.00 0.40 0.18 80 1000.1
20260504194538 47 166 5.0 11.0 0.00 0.44 0.18 81 999.6
20260504193036 46 252 6.0 16.0 0.00 0.44 0.18 82 999.5
20260504191537 46 216 6.0 15.0 0.00 0.44 0.18 83 999.4
20260504190038 46 264 8.0 16.0 0.00 0.44 0.18 84 999.3
20260504184537 46 236 6.0 16.0 0.00 0.44 0.18 84 999.2
20260504183038 45 207 9.0 20.0 0.00 0.44 0.18 86 999.1
20260504181538 43 246 8.0 16.0 0.00 0.44 0.18 90 999.0
20260504180043 42 190 4.0 16.0 0.00 0.44 0.18 90 999.0
20260504174538 42 245 9.0 18.0 0.00 0.44 0.18 89 998.6
20260504173037 42 212 11.0 22.0 0.00 0.44 0.18 90 998.3
20260504171547 41 193 12.0 22.0 0.00 0.44 0.18 91 998.1
20260504081541 37 263 6.0 10.0 0.03 0.33 0.07 96 977.0
20260504044536 42 4 2.0 5.0 0.00 0.26 0.00 86 976.1
20260504043046 42 92 3.0 12.0 0.00 0.26 0.00 85 976.3